Weather History for Lee's Summit, MO

Change the Weather History Date:

Monday, July 22, 2013

  Actual Average (KMKC) Record (KMKC)
Temperature  
Mean Temperature 82 °F -  
Max Temperature 93 °F 87 °F 102 °F (2011)
Min Temperature 70 °F 70 °F 64 °F (2000)
Cooling Degree Days 16    
Growing Degree Days 32 (Base 50)    
Moisture  
Dew Point 68 °F    
Average Humidity 64    
Maximum Humidity 87    
Minimum Humidity 44    
Precipitation  
Precipitation 0.00 in - - ()
Sea Level Pressure  
Sea Level Pressure 29.81 in    
Wind  
Wind Speed 5 mph (SSW)    
Max Wind Speed 15 mph    
Max Gust Speed 21 mph    
Visibility 10 miles    
Events      
Averages and records for this station are not official NWS values.
T = Trace of Precipitation, MM = Missing Value Source: NWS Daily Summary

Daily Weather History Graph

Daily Weather History Graph

Search for Another Location

Airport:

Trip Planner

Search our weather history database for the weather conditions in past years. The results will help you decide how hot, cold, wet, or windy it might be!

Date:

Astronomy

Jul. 22, 2013 Rise Set
Actual Time 6:09 AM CDT 8:37 PM CDT
Civil Twilight 5:39 AM CDT 9:07 PM CDT
Nautical Twilight 5:01 AM CDT 9:45 PM CDT
Astronomical Twilight 4:19 AM CDT 10:27 PM CDT
Moon 8:25 PM CDT (7/22) 6:06 AM CDT (7/22)
Length of Visible Light 15h 28m
Length of Day
14h 27m
Full, 100% of the Moon is Illuminated
Jul 22
Full
Jul 22
Full
Jul 29
Last Quarter
Aug 6
New
Aug 14
First Quarter

Hourly Weather History & Observations

Time (CDT) Temp. Heat Index Dew Point Humidity Pressure Visibility Wind Dir Wind Speed Gust Speed Precip Events Conditions
12:53 AM 75.0 °F - 66.9 °F 76% 29.85 in 10.0 mi SSW 3.5 mph - N/A   Clear
1:53 AM 73.9 °F - 66.9 °F 79% 29.84 in 10.0 mi Calm Calm - N/A   Clear
2:53 AM 73.9 °F - 66.9 °F 79% 29.82 in 10.0 mi SSE 3.5 mph - N/A   Clear
3:53 AM 70.0 °F - 66.0 °F 87% 29.80 in 10.0 mi Calm Calm - N/A   Clear
4:53 AM 72.0 °F - 68.0 °F 87% 29.80 in 10.0 mi South 3.5 mph - N/A   Clear
5:53 AM 72.0 °F - 68.0 °F 87% 29.81 in 10.0 mi South 4.6 mph - N/A   Scattered Clouds
6:53 AM 73.0 °F - 69.1 °F 87% 29.82 in 10.0 mi South 6.9 mph - N/A   Mostly Cloudy
7:53 AM 77.0 °F - 69.1 °F 76% 29.83 in 10.0 mi SSW 6.9 mph - N/A   Scattered Clouds
8:53 AM 79.0 °F - 69.1 °F 72% 29.83 in 10.0 mi SSW 9.2 mph - N/A   Clear
9:53 AM 82.9 °F 87.0 °F 70.0 °F 65% 29.82 in 10.0 mi SSW 10.4 mph - N/A   Clear
10:53 AM 84.9 °F 89.4 °F 70.0 °F 61% 29.82 in 10.0 mi SSW 6.9 mph - N/A   Clear
11:53 AM 87.1 °F 92.0 °F 70.0 °F 57% 29.83 in 10.0 mi Variable 6.9 mph - N/A   Partly Cloudy
12:53 PM 89.1 °F 94.1 °F 70.0 °F 53% 29.82 in 10.0 mi SW 12.7 mph 18.4 mph N/A   Partly Cloudy
1:53 PM 91.0 °F 96.6 °F 70.0 °F 50% 29.80 in 10.0 mi SSW 5.8 mph - N/A   Clear
2:53 PM 93.9 °F 100.3 °F 70.0 °F 46% 29.79 in 10.0 mi SW 10.4 mph 20.7 mph N/A   Scattered Clouds
3:53 PM 93.9 °F 100.8 °F 71.1 °F 47% 29.78 in 10.0 mi WSW 9.2 mph 20.7 mph N/A   Clear
4:53 PM 93.0 °F 97.4 °F 68.0 °F 44% 29.78 in 10.0 mi SW 10.4 mph - N/A   Clear
5:53 PM 91.0 °F 94.3 °F 66.9 °F 45% 29.76 in 10.0 mi SW 15.0 mph 19.6 mph N/A   Clear
6:53 PM 87.1 °F 88.9 °F 64.9 °F 48% 29.77 in 10.0 mi WSW 13.8 mph - N/A   Clear
7:53 PM 84.9 °F 86.6 °F 64.9 °F 51% 29.78 in 10.0 mi WSW 9.2 mph - N/A   Clear
8:53 PM 82.9 °F 84.6 °F 64.9 °F 54% 29.77 in 10.0 mi Calm Calm - N/A   Clear
9:53 PM 82.0 °F 83.8 °F 64.9 °F 56% 29.78 in 10.0 mi Calm Calm - N/A   Clear
10:53 PM 80.1 °F 82.1 °F 66.0 °F 62% 29.81 in 10.0 mi ESE 4.6 mph - N/A   Clear
11:53 PM 79.0 °F - 66.0 °F 64% 29.82 in 10.0 mi South 5.8 mph - N/A   Clear